Year,Month,Day,Hour,Minute,Value (Times are PST for temperature in C)
2017,08,23,00,00,21.90
2017,08,23,00,01,21.90
2017,08,23,00,02,21.80
2017,08,23,00,03,21.80
2017,08,23,00,04,21.80
2017,08,23,00,05,21.70
2017,08,23,00,06,21.70
2017,08,23,00,07,21.70
2017,08,23,00,08,21.60
2017,08,23,00,09,21.60
2017,08,23,00,10,21.60
2017,08,23,00,11,21.50
2017,08,23,00,12,21.50
2017,08,23,00,13,21.50
2017,08,23,00,14,21.40
2017,08,23,00,15,21.40
2017,08,23,00,16,21.40
2017,08,23,00,17,21.40
2017,08,23,00,18,21.40
2017,08,23,00,19,21.40
2017,08,23,00,20,21.40
2017,08,23,00,21,21.40
2017,08,23,00,22,21.40
2017,08,23,00,23,21.40
2017,08,23,00,24,21.40
2017,08,23,00,25,21.40
2017,08,23,00,26,21.40
2017,08,23,00,27,21.40
2017,08,23,00,28,21.40
2017,08,23,00,29,21.30
2017,08,23,00,30,21.30
2017,08,23,00,31,21.30
2017,08,23,00,32,21.30
2017,08,23,00,33,21.20
2017,08,23,00,34,21.20
2017,08,23,00,35,21.20
2017,08,23,00,36,21.20
2017,08,23,00,37,21.20
2017,08,23,00,38,21.20
2017,08,23,00,39,21.10
2017,08,23,00,40,21.10
2017,08,23,00,41,21.10
2017,08,23,00,42,21.00
2017,08,23,00,43,21.00
2017,08,23,00,44,20.90
2017,08,23,00,45,20.90
2017,08,23,00,46,20.80
2017,08,23,00,47,20.80
2017,08,23,00,48,20.80
2017,08,23,00,49,20.80
2017,08,23,00,50,20.80
2017,08,23,00,51,20.80
2017,08,23,00,52,20.80
2017,08,23,00,53,20.70
2017,08,23,00,54,20.70
2017,08,23,00,55,20.70
2017,08,23,00,56,20.80
2017,08,23,00,57,20.80
2017,08,23,00,58,20.80
2017,08,23,00,59,20.80
2017,08,23,01,00,20.70
2017,08,23,01,01,20.70
2017,08,23,01,02,20.70
2017,08,23,01,03,20.60
2017,08,23,01,04,20.60
2017,08,23,01,05,20.60
2017,08,23,01,06,20.60
2017,08,23,01,07,20.60
2017,08,23,01,08,20.60
2017,08,23,01,09,20.50
2017,08,23,01,10,20.50
2017,08,23,01,11,20.50
2017,08,23,01,12,20.50
2017,08,23,01,13,20.50
2017,08,23,01,14,20.50
2017,08,23,01,15,20.40
2017,08,23,01,16,20.40
2017,08,23,01,17,20.40
2017,08,23,01,18,20.40
2017,08,23,01,19,20.40
2017,08,23,01,20,20.40
2017,08,23,01,21,20.30
2017,08,23,01,22,20.30
2017,08,23,01,23,20.30
2017,08,23,01,24,20.30
2017,08,23,01,25,20.30
2017,08,23,01,26,20.20
2017,08,23,01,27,20.20
2017,08,23,01,28,20.20
2017,08,23,01,29,20.20
2017,08,23,01,30,20.10
2017,08,23,01,31,20.10
2017,08,23,01,32,20.10
2017,08,23,01,33,20.10
2017,08,23,01,34,20.10
2017,08,23,01,35,20.10
2017,08,23,01,36,20.00
2017,08,23,01,37,20.00
2017,08,23,01,38,20.00
2017,08,23,01,39,19.90
2017,08,23,01,40,19.90
2017,08,23,01,41,19.90
2017,08,23,01,42,19.90
2017,08,23,01,43,19.90
2017,08,23,01,44,19.80
2017,08,23,01,45,19.80
2017,08,23,01,46,19.80
2017,08,23,01,47,19.80
2017,08,23,01,48,19.80
2017,08,23,01,49,19.80
2017,08,23,01,50,19.70
2017,08,23,01,51,19.70
2017,08,23,01,52,19.70
2017,08,23,01,53,19.60
2017,08,23,01,54,19.60
2017,08,23,01,55,19.60
2017,08,23,01,56,19.60
2017,08,23,01,57,19.60
2017,08,23,01,58,19.50
2017,08,23,01,59,19.50
2017,08,23,02,00,19.50
2017,08,23,02,01,19.50
2017,08,23,02,02,19.40
2017,08,23,02,03,19.40
2017,08,23,02,04,19.40
2017,08,23,02,05,19.40
2017,08,23,02,06,19.30
2017,08,23,02,07,19.30
2017,08,23,02,08,19.30
2017,08,23,02,09,19.30
2017,08,23,02,10,19.30
2017,08,23,02,11,19.30
2017,08,23,02,12,19.30
2017,08,23,02,13,19.30
2017,08,23,02,14,19.20
2017,08,23,02,15,19.20
2017,08,23,02,16,19.20
2017,08,23,02,17,19.20
2017,08,23,02,18,19.20
2017,08,23,02,19,19.10
2017,08,23,02,20,19.10
2017,08,23,02,21,19.10
2017,08,23,02,22,19.10
2017,08,23,02,23,19.10
2017,08,23,02,24,19.00
2017,08,23,02,25,19.00
2017,08,23,02,26,19.00
2017,08,23,02,27,19.00
2017,08,23,02,28,19.00
2017,08,23,02,29,19.00
2017,08,23,02,30,19.00
2017,08,23,02,31,19.00
2017,08,23,02,32,19.00
2017,08,23,02,33,19.00
2017,08,23,02,34,19.00
2017,08,23,02,35,19.00
2017,08,23,02,36,19.00
2017,08,23,02,37,18.90
2017,08,23,02,38,19.00
2017,08,23,02,39,18.90
2017,08,23,02,40,18.90
2017,08,23,02,41,18.90
2017,08,23,02,42,18.90
2017,08,23,02,43,18.90
2017,08,23,02,44,18.90
2017,08,23,02,45,18.90
2017,08,23,02,46,18.90
2017,08,23,02,47,18.90
2017,08,23,02,48,18.80
2017,08,23,02,49,18.80
2017,08,23,02,50,18.80
2017,08,23,02,51,18.80
2017,08,23,02,52,18.80
2017,08,23,02,53,18.80
2017,08,23,02,54,18.80
2017,08,23,02,55,18.70
2017,08,23,02,56,18.70
2017,08,23,02,57,18.70
2017,08,23,02,58,18.70
2017,08,23,02,59,18.70
2017,08,23,03,00,18.70
2017,08,23,03,01,18.60
2017,08,23,03,02,18.60
2017,08,23,03,03,18.60
2017,08,23,03,04,18.60
2017,08,23,03,05,18.60
2017,08,23,03,06,18.60
2017,08,23,03,07,18.60
2017,08,23,03,08,18.50
2017,08,23,03,09,18.50
2017,08,23,03,10,18.40
2017,08,23,03,11,18.40
2017,08,23,03,12,18.40
2017,08,23,03,13,18.30
2017,08,23,03,14,18.30
2017,08,23,03,15,18.30
2017,08,23,03,16,18.30
2017,08,23,03,17,18.30
2017,08,23,03,18,18.20
2017,08,23,03,19,18.20
2017,08,23,03,20,18.20
2017,08,23,03,21,18.20
2017,08,23,03,22,18.20
2017,08,23,03,23,18.20
2017,08,23,03,24,18.20
2017,08,23,03,25,18.10
2017,08,23,03,26,18.10
2017,08,23,03,27,18.10
2017,08,23,03,28,18.10
2017,08,23,03,29,18.20
2017,08,23,03,30,18.20
2017,08,23,03,31,18.20
2017,08,23,03,32,18.20
2017,08,23,03,33,18.20
2017,08,23,03,34,18.20
2017,08,23,03,35,18.20
2017,08,23,03,36,18.20
2017,08,23,03,37,18.20
2017,08,23,03,38,18.20
2017,08,23,03,39,18.10
2017,08,23,03,40,18.10
2017,08,23,03,41,18.10
2017,08,23,03,42,18.10
2017,08,23,03,43,18.10
2017,08,23,03,44,18.10
2017,08,23,03,45,18.10
2017,08,23,03,46,18.00
2017,08,23,03,47,18.00
2017,08,23,03,48,18.00
2017,08,23,03,49,18.00
2017,08,23,03,50,18.00
2017,08,23,03,51,18.10
2017,08,23,03,52,18.10
2017,08,23,03,53,18.00
2017,08,23,03,54,18.00
2017,08,23,03,55,18.00
2017,08,23,03,56,18.00
2017,08,23,03,57,17.90
2017,08,23,03,58,17.90
2017,08,23,03,59,17.90
2017,08,23,04,00,17.90
2017,08,23,04,01,17.80
2017,08,23,04,02,17.80
2017,08,23,04,03,17.80
2017,08,23,04,04,17.80
2017,08,23,04,05,17.80
2017,08,23,04,06,17.80
2017,08,23,04,07,17.80
2017,08,23,04,08,17.80
2017,08,23,04,09,17.70
2017,08,23,04,10,17.70
2017,08,23,04,11,17.70
2017,08,23,04,12,17.70
2017,08,23,04,13,17.70
2017,08,23,04,14,17.70
2017,08,23,04,15,17.70
2017,08,23,04,16,17.70
2017,08,23,04,17,17.70
2017,08,23,04,18,17.70
2017,08,23,04,19,17.70
2017,08,23,04,20,17.70
2017,08,23,04,21,17.70
2017,08,23,04,22,17.70
2017,08,23,04,23,17.70
2017,08,23,04,24,17.70
2017,08,23,04,25,17.70
2017,08,23,04,26,17.70
2017,08,23,04,27,17.70
2017,08,23,04,28,17.60
2017,08,23,04,29,17.60
2017,08,23,04,30,17.60
2017,08,23,04,31,17.60
2017,08,23,04,32,17.60
2017,08,23,04,33,17.60
2017,08,23,04,34,17.60
2017,08,23,04,35,17.60
2017,08,23,04,36,17.50
2017,08,23,04,37,17.50
2017,08,23,04,38,17.50
2017,08,23,04,39,17.50
2017,08,23,04,40,17.40
2017,08,23,04,41,17.40
2017,08,23,04,42,17.40
2017,08,23,04,43,17.40
2017,08,23,04,44,17.40
2017,08,23,04,45,17.40
2017,08,23,04,46,17.40
2017,08,23,04,47,17.40
2017,08,23,04,48,17.40
2017,08,23,04,49,17.30
2017,08,23,04,50,17.30
2017,08,23,04,51,17.30
2017,08,23,04,52,17.30
2017,08,23,04,53,17.30
2017,08,23,04,54,17.30
2017,08,23,04,55,17.30
2017,08,23,04,56,17.30
2017,08,23,04,57,17.30
2017,08,23,04,58,17.30
2017,08,23,04,59,17.30
2017,08,23,05,00,17.30
2017,08,23,05,01,17.30
2017,08,23,05,02,17.30
2017,08,23,05,03,17.30
2017,08,23,05,04,17.30
2017,08,23,05,05,17.30
2017,08,23,05,06,17.30
2017,08,23,05,07,17.30
2017,08,23,05,08,17.30
2017,08,23,05,09,17.30
2017,08,23,05,10,17.30
2017,08,23,05,11,17.30
2017,08,23,05,12,17.30
2017,08,23,05,13,17.30
2017,08,23,05,14,17.30
2017,08,23,05,15,17.30
2017,08,23,05,16,17.30
2017,08,23,05,17,17.30
2017,08,23,05,18,17.30
2017,08,23,05,19,17.30
2017,08,23,05,20,17.30
2017,08,23,05,21,17.30
2017,08,23,05,22,17.30
2017,08,23,05,23,17.20
2017,08,23,05,24,17.20
2017,08,23,05,25,17.20
2017,08,23,05,26,17.20
2017,08,23,05,27,17.10
2017,08,23,05,28,17.10
2017,08,23,05,29,17.10
2017,08,23,05,30,17.10
2017,08,23,05,31,17.10
2017,08,23,05,32,17.00
2017,08,23,05,33,17.00
2017,08,23,05,34,17.00
2017,08,23,05,35,17.00
2017,08,23,05,36,16.90
2017,08,23,05,37,16.90
2017,08,23,05,38,16.90
2017,08,23,05,39,16.90
2017,08,23,05,40,16.90
2017,08,23,05,41,16.90
2017,08,23,05,42,16.90
2017,08,23,05,43,16.80
2017,08,23,05,44,16.80
2017,08,23,05,45,16.80
2017,08,23,05,46,16.80
2017,08,23,05,47,16.80
2017,08,23,05,48,16.80
2017,08,23,05,49,16.80
2017,08,23,05,50,16.80
2017,08,23,05,51,16.80
2017,08,23,05,52,16.80
2017,08,23,05,53,16.80
2017,08,23,05,54,16.80
2017,08,23,05,55,16.80
2017,08,23,05,56,16.80
2017,08,23,05,57,16.80
2017,08,23,05,58,16.80
2017,08,23,05,59,16.70
2017,08,23,06,00,16.70
2017,08,23,06,01,16.70
2017,08,23,06,02,16.70
2017,08,23,06,03,16.70
2017,08,23,06,04,16.70
2017,08,23,06,05,16.70
2017,08,23,06,06,16.70
2017,08,23,06,07,16.70
2017,08,23,06,08,16.70
2017,08,23,06,09,16.70
2017,08,23,06,10,16.60
2017,08,23,06,11,16.60
2017,08,23,06,12,16.60
2017,08,23,06,13,16.60
2017,08,23,06,14,16.50
2017,08,23,06,15,16.50
2017,08,23,06,16,16.50
2017,08,23,06,17,16.50
2017,08,23,06,18,16.50
2017,08,23,06,19,16.50
2017,08,23,06,20,16.50
2017,08,23,06,21,16.50
2017,08,23,06,22,16.50
2017,08,23,06,23,16.40
2017,08,23,06,24,16.40
2017,08,23,06,25,16.40
2017,08,23,06,26,16.40
2017,08,23,06,27,16.40
2017,08,23,06,28,16.40
2017,08,23,06,29,16.40
2017,08,23,06,30,16.40
2017,08,23,06,31,16.40
2017,08,23,06,32,16.40
2017,08,23,06,33,16.40
2017,08,23,06,34,16.40
2017,08,23,06,35,16.40
2017,08,23,06,36,16.40
2017,08,23,06,37,16.40
2017,08,23,06,38,16.40
2017,08,23,06,39,16.40
2017,08,23,06,40,16.40
2017,08,23,06,41,16.40
2017,08,23,06,42,16.40
2017,08,23,06,43,16.40
2017,08,23,06,44,16.40
2017,08,23,06,45,16.40
2017,08,23,06,46,16.50
2017,08,23,06,47,16.50
2017,08,23,06,48,16.50
2017,08,23,06,49,16.50
2017,08,23,06,50,16.60
2017,08,23,06,51,16.60
2017,08,23,06,52,16.70
2017,08,23,06,53,16.70
2017,08,23,06,54,16.70
2017,08,23,06,55,16.80
2017,08,23,06,56,16.80
2017,08,23,06,57,16.90
2017,08,23,06,58,16.90
2017,08,23,06,59,16.90
2017,08,23,07,00,17.00
2017,08,23,07,01,17.00
2017,08,23,07,02,17.00
2017,08,23,07,03,17.10
2017,08,23,07,04,17.10
2017,08,23,07,05,17.10
2017,08,23,07,06,17.10
2017,08,23,07,07,17.10
2017,08,23,07,08,17.20
2017,08,23,07,09,17.20
2017,08,23,07,10,17.20
2017,08,23,07,11,17.30
2017,08,23,07,12,17.30
2017,08,23,07,13,17.30
2017,08,23,07,14,17.30
2017,08,23,07,15,17.30
2017,08,23,07,16,17.40
2017,08,23,07,17,17.40
2017,08,23,07,18,17.40
2017,08,23,07,19,17.40
2017,08,23,07,20,17.50
2017,08,23,07,21,17.50
2017,08,23,07,22,17.60
2017,08,23,07,23,17.60
2017,08,23,07,24,17.70
2017,08,23,07,25,17.70
2017,08,23,07,26,17.80
2017,08,23,07,27,17.80
2017,08,23,07,28,17.80
2017,08,23,07,29,17.80
2017,08,23,07,30,17.90
2017,08,23,07,31,17.90
2017,08,23,07,32,18.00
2017,08,23,07,33,18.10
2017,08,23,07,34,18.20
2017,08,23,07,35,18.30
2017,08,23,07,36,18.30
2017,08,23,07,37,18.30
2017,08,23,07,38,18.40
2017,08,23,07,39,18.50
2017,08,23,07,40,18.50
2017,08,23,07,41,18.60
2017,08,23,07,42,18.70
2017,08,23,07,43,18.80
2017,08,23,07,44,18.80
2017,08,23,07,45,18.90
2017,08,23,07,46,18.90
2017,08,23,07,47,18.90
2017,08,23,07,48,18.90
2017,08,23,07,49,18.90
2017,08,23,07,50,18.90
2017,08,23,07,51,19.00
2017,08,23,07,52,19.00
2017,08,23,07,53,19.00
2017,08,23,07,54,19.00
2017,08,23,07,55,19.10
2017,08,23,07,56,19.10
2017,08,23,07,57,19.10
2017,08,23,07,58,19.10
2017,08,23,07,59,19.10
2017,08,23,08,00,19.00
2017,08,23,08,01,19.00
2017,08,23,08,02,19.00
2017,08,23,08,03,18.90
2017,08,23,08,04,18.90
2017,08,23,08,05,18.90
2017,08,23,08,06,18.90
2017,08,23,08,07,19.00
2017,08,23,08,08,19.10
2017,08,23,08,09,19.10
2017,08,23,08,10,19.20
2017,08,23,08,11,19.20
2017,08,23,08,12,19.30
2017,08,23,08,13,19.40
2017,08,23,08,14,19.50
2017,08,23,08,15,19.60
2017,08,23,08,16,19.70
2017,08,23,08,17,19.80
2017,08,23,08,18,19.90
2017,08,23,08,19,19.90
2017,08,23,08,20,20.00
2017,08,23,08,21,20.00
2017,08,23,08,22,20.00
2017,08,23,08,23,20.00
2017,08,23,08,24,20.10
2017,08,23,08,25,20.10
2017,08,23,08,26,20.20
2017,08,23,08,27,20.20
2017,08,23,08,28,20.20
2017,08,23,08,29,20.20
2017,08,23,08,30,20.30
2017,08,23,08,31,20.30
2017,08,23,08,32,20.40
2017,08,23,08,33,20.50
2017,08,23,08,34,20.50
2017,08,23,08,35,20.60
2017,08,23,08,36,20.70
2017,08,23,08,37,20.70
2017,08,23,08,38,20.70
2017,08,23,08,39,20.70
2017,08,23,08,40,20.80
2017,08,23,08,41,20.80
2017,08,23,08,42,20.80
2017,08,23,08,43,20.70
2017,08,23,08,44,20.60
2017,08,23,08,45,20.50
2017,08,23,08,46,20.40
2017,08,23,08,47,20.30
2017,08,23,08,48,20.20
2017,08,23,08,49,20.10
2017,08,23,08,50,20.00
2017,08,23,08,51,20.00
2017,08,23,08,52,19.90
2017,08,23,08,53,19.90
2017,08,23,08,54,19.80
2017,08,23,08,55,19.80
2017,08,23,08,56,19.70
2017,08,23,08,57,19.60
2017,08,23,08,58,19.60
2017,08,23,08,59,19.60
2017,08,23,09,00,19.60
2017,08,23,09,01,19.60
2017,08,23,09,02,19.60
2017,08,23,09,03,19.60
2017,08,23,09,04,19.60
2017,08,23,09,05,19.70
2017,08,23,09,06,19.70
2017,08,23,09,07,19.70
2017,08,23,09,08,19.80
2017,08,23,09,09,19.80
2017,08,23,09,10,19.80
2017,08,23,09,11,19.90
2017,08,23,09,12,19.90
2017,08,23,09,13,19.90
2017,08,23,09,14,19.90
2017,08,23,09,15,20.00
2017,08,23,09,16,20.00
2017,08,23,09,17,20.10
2017,08,23,09,18,20.10
2017,08,23,09,19,20.10
2017,08,23,09,20,20.10
2017,08,23,09,21,20.00
2017,08,23,09,22,20.00
2017,08,23,09,23,20.00
2017,08,23,09,24,20.00
2017,08,23,09,25,20.00
2017,08,23,09,26,20.00
2017,08,23,09,27,19.90
2017,08,23,09,28,19.90
2017,08,23,09,29,19.90
2017,08,23,09,30,19.90
2017,08,23,09,31,19.90
2017,08,23,09,32,19.90
2017,08,23,09,33,19.90
2017,08,23,09,34,19.90
2017,08,23,09,35,19.90
2017,08,23,09,36,20.00
2017,08,23,09,37,20.00
2017,08,23,09,38,20.10
2017,08,23,09,39,20.10
2017,08,23,09,40,20.20
2017,08,23,09,41,20.20
2017,08,23,09,42,20.20
2017,08,23,09,43,20.30
2017,08,23,09,44,20.30
2017,08,23,09,45,20.30
2017,08,23,09,46,20.40
2017,08,23,09,47,20.40
2017,08,23,09,48,20.50
2017,08,23,09,49,20.50
2017,08,23,09,50,20.60
2017,08,23,09,51,20.80
2017,08,23,09,52,20.90
2017,08,23,09,53,20.90
2017,08,23,09,54,21.00
2017,08,23,09,55,21.10
2017,08,23,09,56,21.20
2017,08,23,09,57,21.20
2017,08,23,09,58,21.20
2017,08,23,09,59,21.30
2017,08,23,10,00,21.30
2017,08,23,10,01,21.30
2017,08,23,10,02,21.40
2017,08,23,10,03,21.40
2017,08,23,10,04,21.50
2017,08,23,10,05,21.60
2017,08,23,10,06,21.60
2017,08,23,10,07,21.60
2017,08,23,10,08,21.60
2017,08,23,10,09,21.60
2017,08,23,10,10,21.70
2017,08,23,10,11,21.70
2017,08,23,10,12,21.70
2017,08,23,10,13,21.70
2017,08,23,10,14,21.80
2017,08,23,10,15,21.90
2017,08,23,10,16,21.90
2017,08,23,10,17,21.90
2017,08,23,10,18,21.90
2017,08,23,10,19,21.90
2017,08,23,10,20,21.90
2017,08,23,10,21,22.00
2017,08,23,10,22,21.90
2017,08,23,10,23,21.90
2017,08,23,10,24,21.90
2017,08,23,10,25,21.90
2017,08,23,10,26,21.90
2017,08,23,10,27,22.00
2017,08,23,10,28,22.00
2017,08,23,10,29,22.00
2017,08,23,10,30,22.10
2017,08,23,10,31,22.10
2017,08,23,10,32,22.20
2017,08,23,10,33,22.30
2017,08,23,10,34,22.40
2017,08,23,10,35,22.40
2017,08,23,10,36,22.50
2017,08,23,10,37,22.60
2017,08,23,10,38,22.60
2017,08,23,10,39,22.70
2017,08,23,10,40,22.80
2017,08,23,10,41,22.80
2017,08,23,10,42,22.80
2017,08,23,10,43,22.80
2017,08,23,10,44,22.70
2017,08,23,10,45,22.50
2017,08,23,10,46,22.40
2017,08,23,10,47,22.30
2017,08,23,10,48,22.20
2017,08,23,10,49,22.20
2017,08,23,10,50,22.10
2017,08,23,10,51,22.10
2017,08,23,10,52,22.20
2017,08,23,10,53,22.30
2017,08,23,10,54,22.40
2017,08,23,10,55,22.50
2017,08,23,10,56,22.50
2017,08,23,10,57,22.40
2017,08,23,10,58,22.40
2017,08,23,10,59,22.40
2017,08,23,11,00,22.40
2017,08,23,11,01,22.20
2017,08,23,11,02,22.20
2017,08,23,11,03,22.20
2017,08,23,11,04,22.20
2017,08,23,11,05,22.20
2017,08,23,11,06,22.20
2017,08,23,11,07,22.20
2017,08,23,11,08,22.30
2017,08,23,11,09,22.50
2017,08,23,11,10,22.50
2017,08,23,11,11,22.50
2017,08,23,11,12,22.50
2017,08,23,11,13,22.50
2017,08,23,11,14,22.60
2017,08,23,11,15,22.60
2017,08,23,11,16,22.60
2017,08,23,11,17,22.60
2017,08,23,11,18,22.60
2017,08,23,11,19,22.80
2017,08,23,11,20,22.90
2017,08,23,11,21,23.00
2017,08,23,11,22,22.90
2017,08,23,11,23,22.90
2017,08,23,11,24,22.90
2017,08,23,11,25,22.90
2017,08,23,11,26,22.90
2017,08,23,11,27,22.90
2017,08,23,11,28,22.90
2017,08,23,11,29,22.90
2017,08,23,11,30,23.00
2017,08,23,11,31,23.20
2017,08,23,11,32,23.20
2017,08,23,11,33,23.10
2017,08,23,11,34,23.00
2017,08,23,11,35,22.90
2017,08,23,11,36,22.90
2017,08,23,11,37,23.00
2017,08,23,11,38,23.10
2017,08,23,11,39,23.20
2017,08,23,11,40,23.20
2017,08,23,11,41,23.20
2017,08,23,11,42,23.20
2017,08,23,11,43,23.10
2017,08,23,11,44,23.10
2017,08,23,11,45,23.20
2017,08,23,11,46,23.20
2017,08,23,11,47,23.30
2017,08,23,11,48,23.30
2017,08,23,11,49,23.30
2017,08,23,11,50,23.20
2017,08,23,11,51,23.20
2017,08,23,11,52,23.20
2017,08,23,11,53,23.30
2017,08,23,11,54,23.30
2017,08,23,11,55,23.30
2017,08,23,11,56,23.30
2017,08,23,11,57,23.30
2017,08,23,11,58,23.30
2017,08,23,11,59,23.30
2017,08,23,12,00,23.30
2017,08,23,12,01,23.20
2017,08,23,12,02,23.20
2017,08,23,12,03,23.20
2017,08,23,12,04,23.40
2017,08,23,12,05,23.50
2017,08,23,12,06,23.60
2017,08,23,12,07,23.50
2017,08,23,12,08,23.40
2017,08,23,12,09,23.30
2017,08,23,12,10,23.30
2017,08,23,12,11,23.40
2017,08,23,12,12,23.50
2017,08,23,12,13,23.60
2017,08,23,12,14,23.60
2017,08,23,12,15,23.60
2017,08,23,12,16,23.60
2017,08,23,12,17,23.60
2017,08,23,12,18,23.50
2017,08,23,12,19,23.40
2017,08,23,12,20,23.30
2017,08,23,12,21,23.30
2017,08,23,12,22,23.30
2017,08,23,12,23,23.20
2017,08,23,12,24,23.20
2017,08,23,12,25,23.30
2017,08,23,12,26,23.30
2017,08,23,12,27,23.20
2017,08,23,12,28,23.20
2017,08,23,12,29,23.20
2017,08,23,12,30,23.20
2017,08,23,12,31,23.20
2017,08,23,12,32,23.10
2017,08,23,12,33,23.10
2017,08,23,12,34,23.00
2017,08,23,12,35,22.90
2017,08,23,12,36,22.90
2017,08,23,12,37,22.80
2017,08,23,12,38,22.80
2017,08,23,12,39,22.70
2017,08,23,12,40,22.70
2017,08,23,12,41,22.60
2017,08,23,12,42,22.60
2017,08,23,12,43,22.50
2017,08,23,12,44,22.50
2017,08,23,12,45,22.60
2017,08,23,12,46,22.50
2017,08,23,12,47,22.50
2017,08,23,12,48,22.60
2017,08,23,12,49,22.60
2017,08,23,12,50,22.60
2017,08,23,12,51,22.60
2017,08,23,12,52,22.70
2017,08,23,12,53,22.80
2017,08,23,12,54,22.90
2017,08,23,12,55,23.00
2017,08,23,12,56,23.00
2017,08,23,12,57,22.90
2017,08,23,12,58,22.90
2017,08,23,12,59,22.90
2017,08,23,13,00,22.90
2017,08,23,13,01,22.90
2017,08,23,13,02,23.00
2017,08,23,13,03,23.00
2017,08,23,13,04,23.00
2017,08,23,13,05,22.80
2017,08,23,13,06,22.70
2017,08,23,13,07,22.70
2017,08,23,13,08,22.70
2017,08,23,13,09,22.70
2017,08,23,13,10,22.80
2017,08,23,13,11,22.90
2017,08,23,13,12,22.90
2017,08,23,13,13,23.10
2017,08,23,13,14,23.20
2017,08,23,13,15,23.20
2017,08,23,13,16,23.20
2017,08,23,13,17,23.10
2017,08,23,13,18,23.20
2017,08,23,13,19,23.30
2017,08,23,13,20,23.20
2017,08,23,13,21,23.00
2017,08,23,13,22,22.90
2017,08,23,13,23,22.80
2017,08,23,13,24,22.80
2017,08,23,13,25,22.80
2017,08,23,13,26,22.80
2017,08,23,13,27,22.90
2017,08,23,13,28,23.00
2017,08,23,13,29,23.10
2017,08,23,13,30,23.30
2017,08,23,13,31,23.40
2017,08,23,13,32,23.50
2017,08,23,13,33,23.50
2017,08,23,13,34,23.50
2017,08,23,13,35,23.50
2017,08,23,13,36,23.70
2017,08,23,13,37,23.70
2017,08,23,13,38,23.70
2017,08,23,13,39,23.60
2017,08,23,13,40,23.70
2017,08,23,13,41,23.80
2017,08,23,13,42,23.80
2017,08,23,13,43,23.80
2017,08,23,13,44,23.70
2017,08,23,13,45,23.60
2017,08,23,13,46,23.60
2017,08,23,13,47,23.60
2017,08,23,13,48,23.60
2017,08,23,13,49,23.60
2017,08,23,13,50,23.70
2017,08,23,13,51,23.70
2017,08,23,13,52,23.70
2017,08,23,13,53,23.70
2017,08,23,13,54,23.70
2017,08,23,13,55,23.70
2017,08,23,13,56,23.70
2017,08,23,13,57,23.70
2017,08,23,13,58,23.80
2017,08,23,13,59,23.90
2017,08,23,14,00,24.10
2017,08,23,14,01,24.10
2017,08,23,14,02,24.00
2017,08,23,14,03,23.90
2017,08,23,14,04,23.80
2017,08,23,14,05,23.80
2017,08,23,14,06,23.70
2017,08,23,14,07,23.70
2017,08,23,14,08,23.70
2017,08,23,14,09,23.70
2017,08,23,14,10,23.80
2017,08,23,14,11,23.80
2017,08,23,14,12,23.70
2017,08,23,14,13,23.70
2017,08,23,14,14,23.80
2017,08,23,14,15,23.80
2017,08,23,14,16,24.00
2017,08,23,14,17,24.10
2017,08,23,14,18,24.00
2017,08,23,14,19,23.90
2017,08,23,14,20,23.90
2017,08,23,14,21,24.00
2017,08,23,14,22,24.10
2017,08,23,14,23,24.20
2017,08,23,14,24,24.20
2017,08,23,14,25,24.20
2017,08,23,14,26,24.20
2017,08,23,14,27,24.20
2017,08,23,14,28,24.20
2017,08,23,14,29,24.30
2017,08,23,14,30,24.30
2017,08,23,14,31,24.40
2017,08,23,14,32,24.60
2017,08,23,14,33,24.80
2017,08,23,14,34,25.00
2017,08,23,14,35,25.10
2017,08,23,14,36,25.10
2017,08,23,14,37,25.00
2017,08,23,14,38,24.90
2017,08,23,14,39,24.70
2017,08,23,14,40,24.40
2017,08,23,14,41,24.30
2017,08,23,14,42,24.30
2017,08,23,14,43,24.30
2017,08,23,14,44,24.30
2017,08,23,14,45,24.30
2017,08,23,14,46,24.30
2017,08,23,14,47,24.20
2017,08,23,14,48,24.20
2017,08,23,14,49,24.20
2017,08,23,14,50,24.20
2017,08,23,14,51,24.20
2017,08,23,14,52,24.30
2017,08,23,14,53,24.30
2017,08,23,14,54,24.40
2017,08,23,14,55,24.40
2017,08,23,14,56,24.40
2017,08,23,14,57,24.40
2017,08,23,14,58,24.40
2017,08,23,14,59,24.50
2017,08,23,15,00,24.60
2017,08,23,15,01,24.70
2017,08,23,15,02,24.80
2017,08,23,15,03,24.80
2017,08,23,15,04,24.90
2017,08,23,15,05,25.00
2017,08,23,15,06,25.00
2017,08,23,15,07,25.00
2017,08,23,15,08,25.00
2017,08,23,15,09,25.00
2017,08,23,15,10,25.00
2017,08,23,15,11,25.00
2017,08,23,15,12,24.90
2017,08,23,15,13,24.80
2017,08,23,15,14,24.80
2017,08,23,15,15,24.80
2017,08,23,15,16,24.90
2017,08,23,15,17,24.90
2017,08,23,15,18,24.80
2017,08,23,15,19,24.70
2017,08,23,15,20,24.70
2017,08,23,15,21,24.70
2017,08,23,15,22,24.70
2017,08,23,15,23,24.70
2017,08,23,15,24,24.70
2017,08,23,15,25,24.70
2017,08,23,15,26,24.80
2017,08,23,15,27,24.80
2017,08,23,15,28,24.90
2017,08,23,15,29,24.90
2017,08,23,15,30,24.80
2017,08,23,15,31,24.70
2017,08,23,15,32,24.70
2017,08,23,15,33,24.80
2017,08,23,15,34,24.90
2017,08,23,15,35,24.90
2017,08,23,15,36,24.90
2017,08,23,15,37,25.10
2017,08,23,15,38,25.20
2017,08,23,15,39,25.20
2017,08,23,15,40,25.20
2017,08,23,15,41,25.10
2017,08,23,15,42,25.00
2017,08,23,15,43,24.90
2017,08,23,15,44,24.80
2017,08,23,15,45,24.80
2017,08,23,15,46,24.90
2017,08,23,15,47,24.90
2017,08,23,15,48,24.90
2017,08,23,15,49,25.00
2017,08,23,15,50,25.00
2017,08,23,15,51,24.90
2017,08,23,15,52,24.90
2017,08,23,15,53,24.80
2017,08,23,15,54,24.80
2017,08,23,15,55,24.90
2017,08,23,15,56,24.90
2017,08,23,15,57,24.90
2017,08,23,15,58,25.00
2017,08,23,15,59,25.20
2017,08,23,16,00,25.30
2017,08,23,16,01,25.30
2017,08,23,16,02,25.20
2017,08,23,16,03,25.20
2017,08,23,16,04,25.10
2017,08,23,16,05,25.10
2017,08,23,16,06,25.10
2017,08,23,16,07,25.20
2017,08,23,16,08,25.10
2017,08,23,16,09,25.10
2017,08,23,16,10,25.10
2017,08,23,16,11,25.10
2017,08,23,16,12,25.20
2017,08,23,16,13,25.20
2017,08,23,16,14,25.30
2017,08,23,16,15,25.40
2017,08,23,16,16,25.40
2017,08,23,16,17,25.40
2017,08,23,16,18,25.50
2017,08,23,16,19,25.50
2017,08,23,16,20,25.50
2017,08,23,16,21,25.50
2017,08,23,16,22,25.50
2017,08,23,16,23,25.60
2017,08,23,16,24,25.70
2017,08,23,16,25,25.80
2017,08,23,16,26,25.80
2017,08,23,16,27,25.80
2017,08,23,16,28,25.80
2017,08,23,16,29,25.70
2017,08,23,16,30,25.70
2017,08,23,16,31,25.70
2017,08,23,16,32,25.70
2017,08,23,16,33,25.80
2017,08,23,16,34,25.80
2017,08,23,16,35,25.80
2017,08,23,16,36,25.70
2017,08,23,16,37,25.70
2017,08,23,16,38,25.60
2017,08,23,16,39,25.60
2017,08,23,16,40,25.60
2017,08,23,16,41,25.60
2017,08,23,16,42,25.60
2017,08,23,16,43,25.70
2017,08,23,16,44,25.60
2017,08,23,16,45,25.60
2017,08,23,16,46,25.60
2017,08,23,16,47,25.50
2017,08,23,16,48,25.40
2017,08,23,16,49,25.30
2017,08,23,16,50,25.20
2017,08,23,16,51,25.20
2017,08,23,16,52,25.20
2017,08,23,16,53,25.20
2017,08,23,16,54,25.30
2017,08,23,16,55,25.20
2017,08,23,16,56,25.20
2017,08,23,16,57,25.20
2017,08,23,16,58,25.20
2017,08,23,16,59,25.30
2017,08,23,17,00,25.30
2017,08,23,17,01,25.20
2017,08,23,17,02,25.20
2017,08,23,17,03,25.20
2017,08,23,17,04,25.20
2017,08,23,17,05,25.20
2017,08,23,17,06,25.20
2017,08,23,17,07,25.20
2017,08,23,17,08,25.10
2017,08,23,17,09,25.00
2017,08,23,17,10,24.90
2017,08,23,17,11,24.80
2017,08,23,17,12,24.80
2017,08,23,17,13,24.70
2017,08,23,17,14,24.70
2017,08,23,17,15,24.70
2017,08,23,17,16,24.70
2017,08,23,17,17,24.80
2017,08,23,17,18,24.80
2017,08,23,17,19,24.80